| time (UTC) | temp C | wind direction | speed KPH | gust KPH | rain 1hr cm | rain 24hr cm | rain mn cm | humidity % | barometer mb |
| 20260506143317 | 13 | 186 | 27.4 | 35.4 | 0.00 | 0.00 | 0.00 | 86 | 1010.0 |
| 20260506142816 | 13 | 177 | 12.9 | 38.6 | 0.00 | 0.00 | 0.00 | 86 | 1010.2 |
| 20260506142313 | 13 | 200 | 17.7 | 40.2 | 0.00 | 0.00 | 0.00 | 86 | 1010.6 |
| 20260506141812 | 13 | 197 | 32.2 | 32.2 | 0.00 | 0.00 | 0.00 | 86 | 1010.3 |
| 20260506141309 | 13 | 194 | 11.3 | 38.6 | 0.00 | 0.00 | 0.00 | 86 | 1010.5 |
| 20260506140807 | 13 | 203 | 19.3 | 30.6 | 0.00 | 0.00 | 0.00 | 86 | 1010.7 |
| 20260506140303 | 14 | 213 | 14.5 | 30.6 | 0.00 | 0.00 | 0.00 | 85 | 1010.6 |
| 20260506135801 | 14 | 199 | 25.7 | 32.2 | 0.00 | 0.00 | 0.00 | 85 | 1010.9 |
| 20260506135257 | 13 | 195 | 14.5 | 35.4 | 0.00 | 0.00 | 0.00 | 86 | 1010.7 |
| 20260506134754 | 14 | 199 | 12.9 | 32.2 | 0.00 | 0.00 | 0.00 | 86 | 1010.9 |
| 20260506134250 | 14 | 193 | 22.5 | 35.4 | 0.00 | 0.00 | 0.00 | 86 | 1011.0 |
| 20260506133747 | 13 | 201 | 25.7 | 33.8 | 0.00 | 0.00 | 0.00 | 86 | 1010.7 |
| 20260506133244 | 13 | 185 | 17.7 | 43.5 | 0.00 | 0.00 | 0.00 | 86 | 1010.8 |
| 20260506132741 | 13 | 209 | 25.7 | 35.4 | 0.00 | 0.00 | 0.00 | 86 | 1010.7 |
| 20260506132238 | 14 | 214 | 14.5 | 25.7 | 0.00 | 0.00 | 0.00 | 86 | 1010.6 |
| 20260506131736 | 13 | 187 | 22.5 | 29.0 | 0.00 | 0.00 | 0.00 | 86 | 1010.5 |
| 20260506131232 | 13 | 187 | 33.8 | 38.6 | 0.00 | 0.00 | 0.00 | 86 | 1010.8 |
| 20260506130729 | 13 | 209 | 14.5 | 32.2 | 0.00 | 0.00 | 0.00 | 87 | 1010.6 |
| 20260506130225 | 13 | 206 | 14.5 | 32.2 | 0.00 | 0.00 | 0.00 | 88 | 1010.5 |
| 20260506125724 | 13 | 181 | 27.4 | 38.6 | 0.00 | 0.00 | 0.00 | 88 | 1010.5 |
| 20260506125221 | 13 | 208 | 12.9 | 30.6 | 0.00 | 0.00 | 0.00 | 88 | 1010.7 |
| 20260506124719 | 13 | 198 | 19.3 | 32.2 | 0.00 | 0.00 | 0.00 | 88 | 1010.5 |
| 20260506124217 | 13 | 195 | 12.9 | 33.8 | 0.00 | 0.00 | 0.00 | 87 | 1010.3 |
| 20260506123714 | 13 | 202 | 24.1 | 29.0 | 0.00 | 0.00 | 0.00 | 87 | 1010.6 |
| 20260506123213 | 13 | 205 | 11.3 | 25.7 | 0.00 | 0.00 | 0.00 | 87 | 1010.7 |
| 20260506122709 | 13 | 208 | 22.5 | 35.4 | 0.00 | 0.00 | 0.00 | 86 | 1010.8 |
| 20260506122207 | 13 | 199 | 14.5 | 38.6 | 0.00 | 0.00 | 0.00 | 86 | 1010.8 |
| 20260506121704 | 13 | 183 | 17.7 | 32.2 | 0.00 | 0.00 | 0.00 | 86 | 1010.9 |
| 20260506121200 | 13 | 179 | 14.5 | 33.8 | 0.00 | 0.00 | 0.00 | 86 | 1011.0 |
| 20260506120658 | 13 | 208 | 19.3 | 38.6 | 0.00 | 0.00 | 0.00 | 87 | 1011.0 |
| 20260506120156 | 13 | 190 | 17.7 | 41.8 | 0.00 | 0.00 | 0.00 | 87 | 1011.1 |
| 20260506115654 | 13 | 202 | 16.1 | 35.4 | 0.00 | 0.00 | 0.00 | 88 | 1011.0 |
| 20260506115152 | 13 | 186 | 16.1 | 32.2 | 0.00 | 0.00 | 0.00 | 88 | 1011.2 |
| 20260506114649 | 13 | 201 | 19.3 | 37.0 | 0.00 | 0.00 | 0.00 | 88 | 1011.2 |
| 20260506114146 | 13 | 201 | 19.3 | 30.6 | 0.00 | 0.00 | 0.00 | 88 | 1011.0 |
| 20260506113645 | 13 | 196 | 14.5 | 32.2 | 0.00 | 0.00 | 0.00 | 88 | 1010.7 |
| 20260506113142 | 13 | 192 | 20.9 | 32.2 | 0.00 | 0.00 | 0.00 | 88 | 1010.7 |
| 20260506112637 | 13 | 202 | 16.1 | 35.4 | 0.00 | 0.00 | 0.00 | 88 | 1010.6 |
| 20260506112136 | 13 | 197 | 14.5 | 32.2 | 0.00 | 0.00 | 0.00 | 88 | 1010.6 |
| 20260506111633 | 13 | 203 | 19.3 | 25.7 | 0.00 | 0.00 | 0.00 | 89 | 1010.5 |
| 20260506111131 | 13 | 218 | 20.9 | 37.0 | 0.00 | 0.00 | 0.00 | 89 | 1010.9 |
| 20260506110628 | 13 | 200 | 24.1 | 38.6 | 0.00 | 0.00 | 0.00 | 89 | 1010.9 |
| 20260506110125 | 13 | 187 | 12.9 | 32.2 | 0.00 | 0.00 | 0.00 | 89 | 1011.1 |
| 20260506105622 | 12 | 193 | 11.3 | 30.6 | 0.00 | 0.00 | 0.00 | 90 | 1010.9 |
| 20260506105119 | 12 | 207 | 16.1 | 29.0 | 0.00 | 0.00 | 0.00 | 90 | 1011.1 |
| 20260506104617 | 12 | 208 | 27.4 | 38.6 | 0.00 | 0.00 | 0.00 | 90 | 1010.8 |
| 20260506104114 | 12 | 200 | 8.0 | 33.8 | 0.00 | 0.00 | 0.00 | 90 | 1010.9 |
| 20260506103611 | 12 | 196 | 25.7 | 40.2 | 0.00 | 0.00 | 0.00 | 90 | 1010.6 |
| 20260506103108 | 12 | 205 | 20.9 | 30.6 | 0.00 | 0.00 | 0.00 | 90 | 1010.7 |
| 20260506102606 | 12 | 201 | 12.9 | 30.6 | 0.00 | 0.00 | 0.00 | 90 | 1010.5 |
| 20260506102103 | 12 | 177 | 20.9 | 32.2 | 0.00 | 0.00 | 0.00 | 90 | 1010.6 |
| 20260506101600 | 12 | 190 | 22.5 | 33.8 | 0.00 | 0.00 | 0.00 | 91 | 1010.8 |
| 20260506101057 | 12 | 224 | 22.5 | 29.0 | 0.00 | 0.00 | 0.00 | 91 | 1010.5 |
| 20260506100555 | 12 | 191 | 22.5 | 30.6 | 0.00 | 0.00 | 0.00 | 91 | 1010.5 |
| 20260506100053 | 12 | 202 | 14.5 | 35.4 | 0.00 | 0.00 | 0.00 | 91 | 1010.5 |
| 20260506095551 | 12 | 191 | 24.1 | 33.8 | 0.00 | 0.00 | 0.00 | 91 | 1010.6 |
| 20260506095048 | 12 | 197 | 20.9 | 35.4 | 0.00 | 0.00 | 0.00 | 91 | 1010.4 |
| 20260506094545 | 12 | 188 | 22.5 | 38.6 | 0.00 | 0.00 | 0.00 | 91 | 1010.3 |
| 20260506094043 | 12 | 194 | 25.7 | 32.2 | 0.00 | 0.00 | 0.00 | 91 | 1010.6 |
| 20260506093541 | 12 | 193 | 25.7 | 43.5 | 0.00 | 0.00 | 0.00 | 91 | 1010.6 |
| 20260506093038 | 12 | 190 | 14.5 | 32.2 | 0.00 | 0.00 | 0.00 | 91 | 1010.4 |
| 20260506092536 | 12 | 201 | 29.0 | 32.2 | 0.00 | 0.00 | 0.00 | 91 | 1010.8 |
| 20260506092033 | 12 | 184 | 19.3 | 35.4 | 0.00 | 0.00 | 0.00 | 90 | 1010.5 |
| 20260506091531 | 12 | 192 | 20.9 | 29.0 | 0.00 | 0.00 | 0.00 | 90 | 1010.7 |
| 20260506091028 | 12 | 176 | 20.9 | 27.4 | 0.00 | 0.00 | 0.00 | 90 | 1010.6 |
| 20260506090526 | 12 | 183 | 19.3 | 32.2 | 0.00 | 0.00 | 0.00 | 90 | 1010.8 |
| 20260506090022 | 12 | 207 | 17.7 | 35.4 | 0.00 | 0.00 | 0.00 | 90 | 1010.7 |
| 20260506085519 | 12 | 174 | 19.3 | 27.4 | 0.00 | 0.00 | 0.00 | 90 | 1010.8 |
| 20260506085015 | 12 | 195 | 19.3 | 33.8 | 0.00 | 0.00 | 0.00 | 90 | 1010.8 |
| 20260506084512 | 12 | 198 | 20.9 | 27.4 | 0.00 | 0.00 | 0.00 | 90 | 1010.8 |
| 20260506084008 | 12 | 202 | 14.5 | 27.4 | 0.00 | 0.00 | 0.00 | 90 | 1011.0 |
| 20260506083506 | 12 | 200 | 11.3 | 27.4 | 0.00 | 0.00 | 0.00 | 89 | 1010.9 |
| 20260506083003 | 12 | 189 | 19.3 | 32.2 | 0.00 | 0.00 | 0.00 | 89 | 1010.8 |
| 20260506082500 | 12 | 198 | 17.7 | 30.6 | 0.00 | 0.00 | 0.00 | 89 | 1010.8 |
| 20260506081955 | 12 | 202 | 22.5 | 32.2 | 0.00 | 0.00 | 0.00 | 89 | 1011.0 |
| 20260506081454 | 12 | 207 | 16.1 | 35.4 | 0.00 | 0.00 | 0.00 | 89 | 1011.0 |
| 20260506080951 | 12 | 185 | 27.4 | 38.6 | 0.00 | 0.00 | 0.00 | 89 | 1010.9 |
| 20260506080448 | 12 | 187 | 20.9 | 29.0 | 0.00 | 0.00 | 0.00 | 89 | 1010.8 |
| 20260506073431 | 12 | 210 | 17.7 | 30.6 | 0.00 | 0.00 | 0.00 | 88 | 1011.2 |
| 20260506072929 | 12 | 198 | 12.9 | 25.7 | 0.00 | 0.00 | 0.00 | 88 | 1011.1 |
| 20260506072426 | 12 | 202 | 25.7 | 33.8 | 0.00 | 0.00 | 0.00 | 88 | 1011.2 |
| 20260506071924 | 12 | 192 | 12.9 | 25.7 | 0.00 | 0.00 | 0.00 | 88 | 1011.3 |
| 20260506071422 | 12 | 207 | 22.5 | 35.4 | 0.00 | 0.00 | 0.00 | 88 | 1011.3 |
| 20260506070918 | 12 | 208 | 12.9 | 27.4 | 0.00 | 0.00 | 0.00 | 88 | 1011.0 |
| 20260506070415 | 13 | 215 | 22.5 | 38.6 | 0.00 | 0.00 | 0.00 | 88 | 1011.3 |
| 20260506062352 | 13 | 210 | 17.7 | 35.4 | 0.00 | 0.00 | 0.00 | 87 | 1011.1 |
| 20260506061848 | 13 | 210 | 29.0 | 49.9 | 0.00 | 0.00 | 0.00 | 87 | 1011.0 |
| 20260506061345 | 13 | 193 | 19.3 | 38.6 | 0.00 | 0.00 | 0.00 | 87 | 1011.1 |
| 20260506060843 | 13 | 209 | 19.3 | 32.2 | 0.00 | 0.00 | 0.00 | 87 | 1011.2 |
| 20260506060341 | 13 | 197 | 19.3 | 38.6 | 0.00 | 0.00 | 0.00 | 87 | 1011.2 |
| 20260506051313 | 13 | 202 | 16.1 | 35.4 | 0.00 | 0.00 | 0.00 | 85 | 1011.2 |
| 20260506050810 | 13 | 190 | 24.1 | 46.7 | 0.00 | 0.00 | 0.00 | 85 | 1011.1 |
| 20260506050308 | 13 | 203 | 20.9 | 38.6 | 0.00 | 0.00 | 0.00 | 85 | 1011.3 |
| 20260506044758 | 13 | 186 | 22.5 | 38.6 | 0.00 | 0.00 | 0.00 | 84 | 1011.3 |
| 20260506044256 | 13 | 200 | 24.1 | 35.4 | 0.00 | 0.00 | 0.00 | 84 | 1011.6 |
| 20260506043753 | 13 | 215 | 27.4 | 38.6 | 0.00 | 0.00 | 0.00 | 84 | 1011.5 |
| 20260506043250 | 13 | 192 | 24.1 | 41.8 | 0.00 | 0.00 | 0.00 | 84 | 1011.5 |
| 20260506042749 | 13 | 202 | 19.3 | 43.5 | 0.00 | 0.00 | 0.00 | 84 | 1011.5 |
| 20260506042247 | 13 | 187 | 19.3 | 41.8 | 0.00 | 0.00 | 0.00 | 84 | 1011.3 |
| 20260506041745 | 13 | 200 | 14.5 | 32.2 | 0.00 | 0.00 | 0.00 | 84 | 1011.3 |
| 20260506041242 | 13 | 195 | 19.3 | 38.6 | 0.00 | 0.00 | 0.00 | 84 | 1011.3 |
| 20260506040739 | 13 | 208 | 25.7 | 45.1 | 0.00 | 0.00 | 0.00 | 83 | 1011.2 |
| 20260506040236 | 13 | 188 | 20.9 | 43.5 | 0.00 | 0.00 | 0.00 | 83 | 1011.6 |
| 20260506035733 | 13 | 192 | 17.7 | 53.1 | 0.00 | 0.00 | 0.00 | 83 | 1011.7 |
| 20260506035230 | 13 | 200 | 14.5 | 41.8 | 0.00 | 0.00 | 0.00 | 83 | 1011.4 |
| 20260506034727 | 13 | 204 | 27.4 | 37.0 | 0.00 | 0.00 | 0.00 | 83 | 1011.4 |
| 20260506034224 | 13 | 195 | 27.4 | 32.2 | 0.00 | 0.00 | 0.00 | 82 | 1011.4 |
| 20260506033721 | 13 | 193 | 27.4 | 37.0 | 0.00 | 0.00 | 0.00 | 82 | 1011.2 |
| 20260506033218 | 13 | 210 | 22.5 | 32.2 | 0.00 | 0.00 | 0.00 | 82 | 1011.2 |
| 20260506032715 | 14 | 209 | 37.0 | 41.8 | 0.00 | 0.00 | 0.00 | 82 | 1011.4 |
| 20260506032212 | 14 | 238 | 20.9 | 32.2 | 0.00 | 0.00 | 0.00 | 82 | 1011.4 |
| 20260506031708 | 14 | 180 | 12.9 | 37.0 | 0.00 | 0.00 | 0.00 | 82 | 1011.1 |
| 20260506031206 | 14 | 203 | 24.1 | 46.7 | 0.00 | 0.00 | 0.00 | 81 | 1011.3 |
| 20260506030704 | 14 | 209 | 20.9 | 43.5 | 0.00 | 0.00 | 0.00 | 81 | 1011.3 |
| 20260506030201 | 14 | 205 | 16.1 | 37.0 | 0.00 | 0.00 | 0.00 | 81 | 1011.4 |
| 20260506025657 | 14 | 195 | 17.7 | 45.1 | 0.00 | 0.00 | 0.00 | 82 | 1011.4 |
| 20260506025154 | 14 | 192 | 35.4 | 54.7 | 0.00 | 0.00 | 0.00 | 82 | 1011.0 |
| 20260506024646 | 14 | 200 | 25.7 | 38.6 | 0.00 | 0.00 | 0.00 | 81 | 1011.4 |
| 20260506024142 | 15 | 207 | 16.1 | 37.0 | 0.00 | 0.00 | 0.00 | 81 | 1011.3 |
| 20260506023638 | 15 | 206 | 24.1 | 38.6 | 0.00 | 0.00 | 0.00 | 81 | 1011.2 |
| 20260506023136 | 14 | 205 | 14.5 | 41.8 | 0.00 | 0.00 | 0.00 | 82 | 1011.3 |
| 20260506022633 | 14 | 205 | 22.5 | 46.7 | 0.00 | 0.00 | 0.00 | 82 | 1011.4 |
| 20260506022130 | 14 | 211 | 29.0 | 35.4 | 0.00 | 0.00 | 0.00 | 82 | 1011.3 |
| 20260506021628 | 14 | 213 | 20.9 | 41.8 | 0.00 | 0.00 | 0.00 | 82 | 1011.2 |
| 20260506021125 | 14 | 208 | 24.1 | 43.5 | 0.00 | 0.00 | 0.00 | 82 | 1011.5 |
| 20260506020622 | 14 | 193 | 27.4 | 37.0 | 0.00 | 0.00 | 0.00 | 82 | 1011.5 |
| 20260506020119 | 14 | 215 | 19.3 | 38.6 | 0.00 | 0.00 | 0.00 | 81 | 1011.4 |
| 20260506015617 | 14 | 210 | 16.1 | 38.6 | 0.00 | 0.00 | 0.00 | 81 | 1011.3 |
| 20260506015114 | 14 | 215 | 29.0 | 37.0 | 0.00 | 0.00 | 0.00 | 81 | 1011.3 |
| 20260506014612 | 14 | 199 | 12.9 | 46.7 | 0.00 | 0.00 | 0.00 | 80 | 1011.2 |
| 20260506014107 | 14 | 203 | 24.1 | 29.0 | 0.00 | 0.00 | 0.00 | 80 | 1011.2 |
| 20260506013605 | 15 | 208 | 16.1 | 33.8 | 0.00 | 0.00 | 0.00 | 80 | 1010.9 |
| 20260506013102 | 15 | 194 | 17.7 | 46.7 | 0.00 | 0.00 | 0.00 | 79 | 1011.0 |
| 20260506012558 | 15 | 193 | 16.1 | 40.2 | 0.00 | 0.00 | 0.00 | 79 | 1011.1 |
| 20260506012054 | 15 | 194 | 19.3 | 37.0 | 0.00 | 0.00 | 0.00 | 79 | 1011.1 |
| 20260506011553 | 15 | 209 | 24.1 | 33.8 | 0.00 | 0.00 | 0.00 | 79 | 1011.2 |
| 20260506011048 | 15 | 213 | 16.1 | 35.4 | 0.00 | 0.00 | 0.00 | 79 | 1011.1 |
| 20260506010548 | 15 | 210 | 20.9 | 37.0 | 0.00 | 0.00 | 0.00 | 78 | 1011.1 |
| 20260506010044 | 15 | 199 | 25.7 | 40.2 | 0.00 | 0.00 | 0.00 | 78 | 1011.0 |
| 20260506005541 | 15 | 191 | 16.1 | 38.6 | 0.00 | 0.00 | 0.00 | 78 | 1011.0 |
| 20260506005037 | 15 | 209 | 27.4 | 35.4 | 0.00 | 0.00 | 0.00 | 78 | 1011.0 |
| 20260506004535 | 15 | 211 | 27.4 | 40.2 | 0.00 | 0.00 | 0.00 | 78 | 1010.9 |
| 20260506004031 | 15 | 205 | 35.4 | 48.3 | 0.00 | 0.00 | 0.00 | 77 | 1010.8 |
| 20260506003528 | 15 | 201 | 30.6 | 37.0 | 0.00 | 0.00 | 0.00 | 77 | 1010.8 |
| 20260506003024 | 15 | 200 | 27.4 | 45.1 | 0.00 | 0.00 | 0.00 | 76 | 1010.7 |
| 20260506002520 | 15 | 198 | 29.0 | 48.3 | 0.00 | 0.00 | 0.00 | 76 | 1010.6 |
| 20260506002016 | 15 | 208 | 30.6 | 38.6 | 0.00 | 0.00 | 0.00 | 77 | 1010.3 |
| 20260506001512 | 15 | 201 | 32.2 | 43.5 | 0.00 | 0.00 | 0.00 | 77 | 1010.5 |
| 20260506001010 | 15 | 202 | 22.5 | 45.1 | 0.00 | 0.00 | 0.00 | 77 | 1010.3 |
| 20260506000507 | 15 | 197 | 22.5 | 48.3 | 0.00 | 0.00 | 0.00 | 76 | 1010.3 |
| 20260506000004 | 15 | 200 | 19.3 | 45.1 | 0.00 | 0.00 | 0.00 | 76 | 1010.1 |
| 20260505235502 | 16 | 203 | 24.1 | 49.9 | 0.00 | 0.00 | 0.00 | 75 | 1010.0 |
| 20260505234958 | 15 | 201 | 25.7 | 35.4 | 0.00 | 0.00 | 0.00 | 76 | 1010.2 |
| 20260505234456 | 15 | 183 | 29.0 | 38.6 | 0.00 | 0.00 | 0.00 | 76 | 1010.0 |
| 20260505233952 | 15 | 199 | 29.0 | 40.2 | 0.00 | 0.00 | 0.00 | 76 | 1009.7 |
| 20260505233450 | 15 | 220 | 14.5 | 48.3 | 0.00 | 0.00 | 0.00 | 76 | 1009.7 |
| 20260505232947 | 15 | 201 | 16.1 | 37.0 | 0.00 | 0.00 | 0.00 | 77 | 1009.6 |
| 20260505232445 | 15 | 190 | 19.3 | 33.8 | 0.00 | 0.00 | 0.00 | 77 | 1009.5 |
| 20260505231942 | 15 | 203 | 17.7 | 30.6 | 0.00 | 0.00 | 0.00 | 77 | 1009.5 |
| 20260505231439 | 15 | 204 | 19.3 | 38.6 | 0.00 | 0.00 | 0.00 | 77 | 1009.4 |
| 20260505230938 | 15 | 204 | 22.5 | 45.1 | 0.00 | 0.00 | 0.00 | 77 | 1009.2 |
| 20260505230435 | 15 | 185 | 20.9 | 46.7 | 0.00 | 0.00 | 0.00 | 77 | 1009.4 |
| 20260505225931 | 15 | 186 | 11.3 | 37.0 | 0.00 | 0.00 | 0.00 | 77 | 1009.4 |
| 20260505225428 | 15 | 207 | 16.1 | 35.4 | 0.00 | 0.00 | 0.00 | 77 | 1009.3 |
| 20260505224924 | 15 | 196 | 14.5 | 30.6 | 0.00 | 0.00 | 0.00 | 76 | 1009.4 |
| 20260505224421 | 15 | 206 | 27.4 | 41.8 | 0.00 | 0.00 | 0.00 | 77 | 1009.2 |
| 20260505223918 | 15 | 211 | 27.4 | 35.4 | 0.00 | 0.00 | 0.00 | 77 | 1009.1 |
| 20260505223415 | 15 | 189 | 30.6 | 40.2 | 0.00 | 0.00 | 0.00 | 77 | 1009.3 |
| 20260505222912 | 15 | 199 | 25.7 | 54.7 | 0.00 | 0.00 | 0.00 | 77 | 1008.8 |
| 20260505222408 | 15 | 193 | 16.1 | 49.9 | 0.00 | 0.00 | 0.00 | 77 | 1009.1 |
| 20260505221904 | 15 | 198 | 14.5 | 35.4 | 0.00 | 0.00 | 0.00 | 76 | 1009.5 |
| 20260505221402 | 15 | 194 | 20.9 | 45.1 | 0.00 | 0.00 | 0.00 | 76 | 1009.3 |
| 20260505220858 | 16 | 189 | 22.5 | 40.2 | 0.00 | 0.00 | 0.00 | 75 | 1009.2 |
| 20260505220355 | 16 | 207 | 32.2 | 40.2 | 0.00 | 0.00 | 0.00 | 75 | 1009.0 |
| 20260505215853 | 15 | 197 | 17.7 | 37.0 | 0.00 | 0.00 | 0.00 | 75 | 1008.9 |
| 20260505215351 | 16 | 204 | 35.4 | 43.5 | 0.00 | 0.00 | 0.00 | 75 | 1009.2 |
| 20260505214849 | 16 | 200 | 14.5 | 41.8 | 0.00 | 0.00 | 0.00 | 75 | 1009.1 |
| 20260505214346 | 16 | 196 | 27.4 | 37.0 | 0.00 | 0.00 | 0.00 | 75 | 1009.2 |
| 20260505213843 | 16 | 188 | 16.1 | 41.8 | 0.00 | 0.00 | 0.00 | 76 | 1008.8 |
| 20260505213341 | 15 | 183 | 32.2 | 45.1 | 0.00 | 0.00 | 0.00 | 76 | 1008.9 |
| 20260505212837 | 16 | 204 | 24.1 | 38.6 | 0.00 | 0.00 | 0.00 | 75 | 1008.9 |
| 20260505212334 | 16 | 186 | 22.5 | 54.7 | 0.00 | 0.00 | 0.00 | 74 | 1008.6 |
| 20260505211830 | 16 | 182 | 25.7 | 38.6 | 0.00 | 0.00 | 0.00 | 74 | 1008.6 |
| 20260505211328 | 16 | 192 | 16.1 | 43.5 | 0.00 | 0.00 | 0.00 | 74 | 1008.7 |
| 20260505210824 | 16 | 194 | 24.1 | 41.8 | 0.00 | 0.00 | 0.00 | 74 | 1008.6 |
| 20260505210321 | 16 | 199 | 11.3 | 33.8 | 0.00 | 0.00 | 0.00 | 75 | 1008.7 |
| 20260505205818 | 16 | 218 | 25.7 | 38.6 | 0.00 | 0.00 | 0.00 | 75 | 1008.7 |
| 20260505205316 | 15 | 198 | 25.7 | 38.6 | 0.00 | 0.00 | 0.00 | 76 | 1008.8 |
| 20260505204812 | 16 | 177 | 24.1 | 45.1 | 0.00 | 0.00 | 0.00 | 75 | 1008.6 |
| 20260505204311 | 16 | 172 | 14.5 | 35.4 | 0.00 | 0.00 | 0.00 | 76 | 1008.8 |
| 20260505203808 | 15 | 201 | 35.4 | 41.8 | 0.00 | 0.00 | 0.00 | 76 | 1008.6 |
| 20260505203304 | 15 | 180 | 20.9 | 41.8 | 0.00 | 0.00 | 0.00 | 76 | 1008.6 |
| 20260505202800 | 16 | 190 | 20.9 | 32.2 | 0.00 | 0.00 | 0.00 | 76 | 1008.6 |
| 20260505202257 | 16 | 189 | 19.3 | 49.9 | 0.00 | 0.00 | 0.00 | 76 | 1008.8 |
| 20260505201753 | 16 | 188 | 20.9 | 43.5 | 0.00 | 0.00 | 0.00 | 76 | 1008.7 |
| 20260505201251 | 16 | 184 | 20.9 | 38.6 | 0.00 | 0.00 | 0.00 | 76 | 1008.7 |
| 20260505200749 | 16 | 192 | 25.7 | 37.0 | 0.00 | 0.00 | 0.00 | 76 | 1008.7 |
| 20260505200246 | 16 | 187 | 24.1 | 41.8 | 0.00 | 0.00 | 0.00 | 75 | 1008.9 |
| 20260505195741 | 16 | 195 | 30.6 | 45.1 | 0.00 | 0.00 | 0.00 | 76 | 1008.8 |
| 20260505195239 | 16 | 179 | 27.4 | 37.0 | 0.00 | 0.00 | 0.00 | 76 | 1008.9 |
| 20260505194736 | 16 | 181 | 16.1 | 38.6 | 0.00 | 0.00 | 0.00 | 76 | 1008.9 |
| 20260505194232 | 16 | 199 | 24.1 | 41.8 | 0.00 | 0.00 | 0.00 | 76 | 1009.2 |
| 20260505193728 | 16 | 192 | 20.9 | 35.4 | 0.00 | 0.00 | 0.00 | 75 | 1009.1 |
| 20260505193226 | 16 | 191 | 20.9 | 37.0 | 0.00 | 0.00 | 0.00 | 75 | 1009.1 |
| 20260505192724 | 16 | 207 | 24.1 | 45.1 | 0.00 | 0.00 | 0.00 | 74 | 1009.5 |
| 20260505192221 | 16 | 212 | 24.1 | 33.8 | 0.00 | 0.00 | 0.00 | 75 | 1009.8 |
| 20260505191720 | 16 | 181 | 29.0 | 33.8 | 0.00 | 0.00 | 0.00 | 75 | 1009.7 |
| 20260505191218 | 16 | 184 | 14.5 | 37.0 | 0.00 | 0.00 | 0.00 | 75 | 1009.6 |
| 20260505190714 | 16 | 193 | 17.7 | 38.6 | 0.00 | 0.00 | 0.00 | 76 | 1009.8 |
| 20260505190213 | 16 | 188 | 20.9 | 35.4 | 0.00 | 0.00 | 0.00 | 76 | 1009.9 |
| 20260505185710 | 16 | 181 | 12.9 | 40.2 | 0.00 | 0.00 | 0.00 | 77 | 1010.0 |
| 20260505185207 | 16 | 194 | 22.5 | 30.6 | 0.00 | 0.00 | 0.00 | 76 | 1010.2 |
| 20260505184703 | 16 | 208 | 11.3 | 30.6 | 0.00 | 0.00 | 0.00 | 76 | 1010.2 |
| 20260505184201 | 16 | 198 | 17.7 | 37.0 | 0.00 | 0.00 | 0.00 | 76 | 1010.2 |
| 20260505183657 | 16 | 185 | 22.5 | 32.2 | 0.00 | 0.00 | 0.00 | 76 | 1010.2 |
| 20260505183155 | 16 | 184 | 25.7 | 33.8 | 0.00 | 0.00 | 0.00 | 75 | 1010.3 |
| 20260505182650 | 16 | 187 | 20.9 | 32.2 | 0.00 | 0.00 | 0.00 | 76 | 1010.3 |
| 20260505182148 | 16 | 186 | 20.9 | 35.4 | 0.00 | 0.00 | 0.00 | 76 | 1010.5 |
| 20260505181644 | 16 | 191 | 11.3 | 30.6 | 0.00 | 0.00 | 0.00 | 77 | 1010.5 |
| 20260505181142 | 16 | 202 | 17.7 | 25.7 | 0.00 | 0.00 | 0.00 | 76 | 1010.7 |
| 20260505180638 | 16 | 196 | 16.1 | 29.0 | 0.00 | 0.00 | 0.00 | 76 | 1010.6 |
| 20260505180135 | 16 | 196 | 12.9 | 33.8 | 0.00 | 0.00 | 0.00 | 76 | 1010.9 |
| 20260505175631 | 16 | 185 | 11.3 | 27.4 | 0.00 | 0.00 | 0.00 | 76 | 1010.7 |
| 20260505175128 | 16 | 210 | 17.7 | 25.7 | 0.00 | 0.00 | 0.00 | 76 | 1010.8 |
| 20260505174624 | 16 | 183 | 14.5 | 27.4 | 0.00 | 0.00 | 0.00 | 75 | 1010.9 |
| 20260505174120 | 16 | 212 | 22.5 | 24.1 | 0.00 | 0.00 | 0.00 | 74 | 1011.2 |
| 20260505173617 | 16 | 230 | 6.4 | 20.9 | 0.00 | 0.00 | 0.00 | 75 | 1011.0 |
| 20260505173114 | 16 | 210 | 11.3 | 16.1 | 0.00 | 0.00 | 0.00 | 75 | 1011.0 |
| 20260505172612 | 16 | 172 | 4.8 | 19.3 | 0.00 | 0.00 | 0.00 | 75 | 1011.3 |
| 20260505172108 | 16 | 252 | 9.7 | 22.5 | 0.00 | 0.00 | 0.00 | 76 | 1011.3 |
| 20260505171603 | 16 | 204 | 8.0 | 20.9 | 0.00 | 0.00 | 0.00 | 77 | 1011.4 |
| 20260505171100 | 16 | 222 | 8.0 | 17.7 | 0.00 | 0.00 | 0.00 | 75 | 1011.4 |
| 20260505170557 | 16 | 216 | 9.7 | 14.5 | 0.00 | 0.00 | 0.00 | 75 | 1011.4 |
| 20260505170053 | 16 | 211 | 11.3 | 17.7 | 0.00 | 0.00 | 0.00 | 74 | 1011.7 |
| 20260505165548 | 16 | 194 | 8.0 | 19.3 | 0.00 | 0.00 | 0.00 | 75 | 1011.3 |
| 20260505165045 | 16 | 200 | 4.8 | 19.3 | 0.00 | 0.00 | 0.00 | 77 | 1011.3 |
| 20260505164540 | 16 | 219 | 11.3 | 20.9 | 0.00 | 0.00 | 0.00 | 76 | 1011.5 |
| 20260505164038 | 16 | 177 | 11.3 | 29.0 | 0.00 | 0.00 | 0.00 | 76 | 1011.5 |
| 20260505163537 | 16 | 187 | 8.0 | 22.5 | 0.00 | 0.00 | 0.00 | 75 | 1011.6 |
| 20260505163033 | 16 | 201 | 14.5 | 25.7 | 0.00 | 0.00 | 0.00 | 76 | 1011.5 |
| 20260505162527 | 16 | 171 | 14.5 | 19.3 | 0.00 | 0.00 | 0.00 | 75 | 1011.6 |
| 20260505162024 | 16 | 187 | 17.7 | 20.9 | 0.00 | 0.00 | 0.00 | 74 | 1011.5 |
| 20260505161520 | 16 | 183 | 11.3 | 20.9 | 0.00 | 0.00 | 0.00 | 75 | 1011.7 |
| 20260505161017 | 17 | 194 | 6.4 | 12.9 | 0.00 | 0.00 | 0.00 | 73 | 1012.0 |
| 20260505160516 | 16 | 208 | 6.4 | 16.1 | 0.00 | 0.00 | 0.00 | 75 | 1011.8 |
| 20260505152951 | 17 | 200 | 8.0 | 17.7 | 0.00 | 0.00 | 0.00 | 75 | 1011.9 |
| 20260505152448 | 16 | 194 | 6.4 | 9.7 | 0.00 | 0.00 | 0.00 | 76 | 1012.1 |
| 20260505151944 | 16 | 195 | 4.8 | 14.5 | 0.00 | 0.00 | 0.00 | 75 | 1012.0 |
| 20260505151439 | 16 | 189 | 8.0 | 12.9 | 0.00 | 0.00 | 0.00 | 75 | 1012.2 |
| 20260505150937 | 16 | 206 | 4.8 | 17.7 | 0.00 | 0.00 | 0.00 | 76 | 1012.3 |
| 20260505150434 | 16 | 176 | 6.4 | 12.9 | 0.00 | 0.00 | 0.00 | 75 | 1012.1 |